sat.trackr.live / text

‹ back to catalog

KUIPER-00421

NORAD 68933 · 2026-098Q

PAYLOAD ACTIVE UNKNOWN

§ Identity

Operator
Country
US
Launch date
2026-04-30
Launch site
FRGUI
Launch vehicle
Mass (kg)
RCS (m²)

External: N2YO · Heavens-Above · Gunter

§ Orbital elements

Epoch: 2026-05-25T01:23:24.438336Z

Period
93.86 min
Inclination
51.8751°
Eccentricity
0.0009389
Mean motion
15.34156025 rev/d
Perigee alt
457.0 km
Apogee alt
469.9 km
Semi-major
6,841.6 km
B*
5.5185e-4
RAAN
179.2454°
Arg perigee
50.6512°
Mean anomaly
309.5304°
Rev number
379

§ Raw data

KUIPER-004211 68933U 26098Q   26145.05792174  .00018207  00000+0  55185-3 0  99912 68933  51.8751 179.2454 0009389  50.6512 309.5304 15.34156025  3793

JSON: /api/v1/satellites/68933 · /tle

For live sub-satellite position, see the globe view (requires WebGL).

§ Visibility from observer

Set your observer location to see the next 7 days of passes ≥ 10°. The values pass through the URL so the page stays shareable.

No JS? Fill the form by hand. The geolocation button needs JavaScript.